GW3457 Weather Reports


Display with metric or nautical units.
time (UTC)temp
F
wind
direction
speed
MPH
gust
MPH
rain 1hr
in
rain 24hr
in
rain mn
in
humidity
%
barometer
mb
20260506044555 68 150 1.0 3.0 0.00 0.00 0.00 50 1008.9
20260506043050 69 0 0.0 1.0 0.00 0.00 0.00 48 1008.8
20260506041554 69 0 1.0 5.0 0.00 0.00 0.00 45 1008.7
20260506040050 69 164 1.0 5.0 0.00 0.00 0.00 44 1008.8
20260506034543 70 127 0.0 6.0 0.00 0.00 0.00 43 1008.8
20260506033046 70 161 2.0 7.0 0.00 0.00 0.00 42 1008.7
20260506031558 70 159 3.0 10.0 0.00 0.00 0.00 42 1008.8
20260506030108 70 171 4.0 8.0 0.00 0.00 0.00 43 1008.7
20260506024547 70 147 2.0 5.0 0.00 0.00 0.00 44 1008.7
20260506023049 69 171 2.0 7.0 0.00 0.00 0.00 44 1008.8
20260506021543 69 171 2.0 8.0 0.00 0.00 0.00 46 1008.8
20260506020041 67 162 1.0 4.0 0.00 0.00 0.00 50 1008.7
20260506014542 67 159 2.0 6.0 0.00 0.00 0.00 52 1008.7
20260506013050 67 146 2.0 6.0 0.00 0.00 0.00 54 1008.7
20260506011555 68 169 1.0 5.0 0.00 0.00 0.00 51 1008.6
20260506010054 69 0 1.0 4.0 0.00 0.00 0.00 49 1008.3
20260506004626 70 0 0.0 5.0 0.00 0.00 0.00 46 1008.3
20260506003052 72 215 2.0 5.0 0.00 0.00 0.00 44 1008.1
20260506001600 73 190 0.0 2.0 0.00 0.00 0.00 42 1007.8
20260506000101 75 0 0.0 2.0 0.00 0.00 0.00 40 1007.9
20260505234609 76 0 0.0 2.0 0.00 0.00 0.00 37 1007.7
20260505233047 78 0 0.0 4.0 0.00 0.00 0.00 36 1007.6
20260505231549 78 286 3.0 8.0 0.00 0.00 0.00 32 1007.5
20260505230050 79 238 4.0 12.0 0.00 0.00 0.00 30 1007.3
20260505224546 80 227 5.0 11.0 0.00 0.00 0.00 30 1007.3
20260505223058 81 219 8.0 16.0 0.00 0.00 0.00 30 1007.4
20260505221605 81 242 6.0 20.0 0.00 0.00 0.00 29 1007.2
20260505220117 81 236 5.0 9.0 0.00 0.00 0.00 30 1007.1
20260505214604 81 242 4.0 14.0 0.00 0.00 0.00 30 1007.0
20260505213049 82 240 6.0 20.0 0.00 0.00 0.00 30 1007.0
20260505211559 82 205 8.0 18.0 0.00 0.00 0.00 29 1007.1
20260505210046 83 205 7.0 17.0 0.00 0.00 0.00 28 1007.0
20260505204550 84 211 7.0 20.0 0.00 0.00 0.00 26 1006.9
20260505203044 85 192 8.0 20.0 0.00 0.00 0.00 27 1006.8
20260505201601 85 188 4.0 17.0 0.00 0.00 0.00 27 1006.9
20260505200100 85 149 6.0 19.0 0.00 0.00 0.00 22 1007.0
20260505194555 84 203 5.0 21.0 0.00 0.00 0.00 23 1007.2
20260505193046 84 271 4.0 20.0 0.00 0.00 0.00 23 1007.5
20260505191543 83 162 13.0 30.0 0.00 0.00 0.00 23 1007.7
20260505190051 83 234 11.0 24.0 0.00 0.00 0.00 25 1008.0
20260505184549 83 225 9.0 25.0 0.00 0.00 0.00 25 1008.3
20260505183049 84 209 9.0 22.0 0.00 0.00 0.00 25 1008.4
20260505181549 83 169 9.0 29.0 0.00 0.00 0.00 25 1008.6
20260505180048 82 213 6.0 18.0 0.00 0.00 0.00 27 1008.7
20260505174548 81 223 11.0 25.0 0.00 0.00 0.00 28 1009.0
20260505173053 82 190 6.0 26.0 0.00 0.00 0.00 27 1008.9
20260505171549 81 239 6.0 20.0 0.00 0.00 0.00 29 1009.0
20260505170049 80 208 10.0 25.0 0.00 0.00 0.00 29 1009.3
20260505164551 79 222 4.0 21.0 0.00 0.00 0.00 31 1009.7
20260505163052 81 133 2.0 20.0 0.00 0.00 0.00 31 1009.9
20260505161556 79 237 10.0 22.0 0.00 0.00 0.00 33 1009.9
20260505153049 78 246 10.0 25.0 0.00 0.00 0.00 36 1010.2
20260505151546 78 222 8.0 23.0 0.00 0.00 0.00 36 1010.3
20260505130141 69 193 4.0 7.0 0.00 0.00 0.00 51 1010.7
20260505124557 64 9 1.0 5.0 0.00 0.00 0.00 65 1010.7
20260505123049 62 0 2.0 5.0 0.00 0.00 0.00 69 1011.1
20260505121549 59 0 1.0 3.0 0.00 0.00 0.00 73 1011.3
20260505120052 58 9 2.0 4.0 0.00 0.00 0.00 77 1011.4
20260505114548 55 13 0.0 1.0 0.00 0.00 0.00 80 1011.4
20260505113045 54 0 0.0 4.0 0.00 0.00 0.00 82 1011.3
20260505111547 53 0 1.0 3.0 0.00 0.00 0.00 83 1011.2
20260505101543 51 0 0.0 2.0 0.00 0.00 0.00 84 1010.6
20260505100049 51 19 0.0 2.0 0.00 0.00 0.00 84 1010.3
20260505094550 51 360 0.0 2.0 0.00 0.00 0.00 84 1010.3
20260505093053 51 0 0.0 1.0 0.00 0.00 0.00 84 1010.4
20260505091602 50 0 0.0 3.0 0.00 0.00 0.00 85 1010.0
20260505090052 50 0 0.0 4.0 0.00 0.00 0.00 85 1009.9
20260505084549 50 360 1.0 4.0 0.00 0.00 0.00 84 1009.8
20260505083042 50 0 0.0 0.0 0.00 0.00 0.00 83 1009.8
20260505081553 51 0 0.0 2.0 0.00 0.00 0.00 82 1009.8
20260505080054 51 0 0.0 4.0 0.00 0.00 0.00 82 1009.8
20260505074548 51 0 0.0 3.0 0.00 0.00 0.00 81 1009.7
20260505073052 52 0 0.0 4.0 0.00 0.00 0.00 81 1009.6
20260505071543 52 360 1.0 3.0 0.00 0.00 0.00 79 1009.6
20260505070051 53 0 1.0 2.0 0.00 0.00 0.00 79 1009.6
20260505064539 53 0 1.0 3.0 0.00 0.00 0.00 77 1009.5
20260505063108 54 0 0.0 3.0 0.00 0.00 0.00 76 1009.6
20260505061542 55 0 0.0 3.0 0.00 0.00 0.00 75 1009.6
20260505060049 55 0 0.0 5.0 0.00 0.00 0.00 74 1009.7
20260505054551 56 233 0.0 2.0 0.00 0.00 0.00 72 1009.7
20260505053052 57 242 0.0 1.0 0.00 0.00 0.00 70 1009.7
20260505051541 58 0 0.0 1.0 0.00 0.00 0.00 69 1009.6